Simultaneous Nadir Overpasses (SNOs) Predictions

Prediction of SNOs between NOAA-20 and PACE Satellite Orbit:

Table of predicted SNOs for the next 14.0 days since TLE Epoch: 12/21/2024
Index Date (NOAA-20) Time (NOAA-20) Lat,Lon (NOAA-20) SZA (NOAA-20 ) Date (PACE) Time (PACE) Lat,Lon (PACE) SZA (PACE ) Distance(km) Time Diff (sec)
1 12/22/2024 10:41:33 -79.83, 162.12 74.84 12/22/2024 10:42:44 -79.84, 161.98 74.85 2.71 71
2 12/22/2024 11:32:12 79.64, -28.85 104.84 12/22/2024 11:31:48 79.64, -28.89 104.85 0.86 24
3 12/24/2024 15:08:04 -79.88, 95.04 74.76 12/24/2024 15:08:53 -79.88, 95.17 74.80 2.63 49
4 12/24/2024 15:58:39 79.57, -94.82 104.70 12/24/2024 15:57:54 79.57, -94.90 104.73 1.65 45
5 12/26/2024 19:34:29 -79.75, 29.64 75.04 12/26/2024 19:34:57 -79.76, 29.53 75.03 2.32 28
6 12/26/2024 20:25:08 79.56,-161.39 104.64 12/26/2024 20:24:01 79.56,-161.38 104.67 0.31 67
7 12/29/2024 00:00:58 -79.75, -36.94 75.13 12/29/2024 00:01:03 -79.74, -36.86 75.15 1.74 5
8 12/31/2024 03:38:50 81.08, 42.66 111.75 12/31/2024 03:40:02 81.86, 41.99 111.94 87.50 72
9 12/31/2024 04:27:26 -79.72,-103.29 75.30 12/31/2024 04:27:08 -79.71,-103.19 75.31 1.97 18
10 01/02/2025 08:03:13 79.82, 21.79 104.74 01/02/2025 08:04:06 79.82, 21.80 104.71 0.45 53



Historial Predications of SNOs between NOAA-20 and PACE
